星链-3185 (STARLINK-3185 )

导读

STARLINK-3185是美国SpaceX星链星座中的一颗卫星,于2022年1月19日发射升空,属于星链计划第二代组网卫星。该卫星主要用于提供全球覆盖的低轨宽带互联网服务,尤其服务偏远地区和网络基础设施不足区域。作为低轨卫星,它运行在近地轨道,具备低延迟传输特性,目前在轨正常运行,持续推进星链星座的全球组网布局。

基本信息
目录编号:
51144
目录名称:
STARLINK-3185
国际标识:
2022-005AS
轨道中心:
EARTH
卫星名称:
星链-3185
卫星全名:
星链-3185 (STARLINK-3185 )
卫星状态:
在轨 (已飞行1689 天)
发射日期:
2022-01-19 UTC
国别 :
美国 (US)
星等 :
--
轨道信息
数据来源 国际轨道数据 AOE轨道数据
星历时间 2026-09-03T16:18:15+0800
1天前
查看轨道信息
2026-08-29T10:00:00+0800
6天前
查看轨道信息
半长轴 6848.891km 6848.863km
偏心率 0.0001322 0.0001401
轨道倾角 53.159° 53.158°
近地点辐角 85.859° 73.909°
升交点赤经 209.658° 234.161°
平近点角 274.256° 51.019°
近地点 469.848km 469.766km
远地点 471.66km 471.686km
周期 94.013分钟 94.013分钟
每日圈数 15.316955 15.31705
详细信息
固有亮度:
5
最大亮度:
2.5
卫星平台:
Starlink v1.5
覆盖范围:
全球
运营商:
太空探索技术公司
运营商所在国:
美国
制造商(研发单位):
太空探索技术公司
制造商所在国:
美国
使用方式:
暂无
卫星简介
星链(Starlink)计划是由太空探索技术公司(SpaceX)提出的一个巨型低轨卫星互联网星座项目,计划在2019年至2024年间在太空搭建由约1.2万颗卫星组成的“星链”网络,其中1584颗将部署在地球上空550千米处的近地轨道,并从2020年开始工作。该卫星仍在工作。
2D轨道图
3D轨道图
轨道高度分析图
轨道倾角分析图
轨道综合分析图
查看轨道综合分析图